Location: Jangalapalle
(16.8036°N, 80.6370°E)
Time: 12:23:17
(UTC+00:00)

Cosmos 783 Rocket - Pass Details

Date: 05 August 2024
Orbit: 755 x 777 km, 74.1° (Epoch: 08 September)

Event Time Altitude Azimuth Distance (km) Brightness Sun altitude
Exits shadow 22:24:44 80° 200° (SSW) 786 4.3 -26.0°
Maximum altitude 22:25:03 89° 283° (WNW) 776 4.4 -26.0°
Drops below altitude 10° 22:30:20 10° 13° (NNE) 2,319 7.5 -24.9°
Sets 22:32:43 0° 14° (NNE) 3,249 8.3 -24.4°
